Tracking 27079 objects as of 23-Mar-2023
HD Live streaming from Space Station
objects crossing your sky now

STARLINK-4317

Track STARLINK-4317 now!
10-day predictions
STARLINK-4317 is classified as:


NORAD ID: 53058
Int'l Code: 2022-077R
Perigee: 569.1 km
Apogee: 571.2 km
Inclination: 97.7 °
Period: 95.9 minutes
Semi major axis: 6941 km
RCS: Unknown
Launch date: July 11, 2022
Source: United States (US)
Launch site: AIR FORCE WESTERN TEST RANGE (AFWTR)
Your satellite tracking list
Your tracking list is empty




NASA's NSSDC Master Catalog

Two Line Element Set (TLE):
1 53058U 22077R   23082.45478644  .00000796  00000-0  66514-4 0  9994
2 53058  97.6570 264.7668 0001482  91.0061 269.1333 15.01264871 38540
Source of the keplerian elements: AFSPC